EW9119 Weather Reports


time (UTC)temp
C
wind
direction
speed
KPH
gust
KPH
rain 1hr
cm
rain 24hr
cm
rain mn
cm
humidity
%
barometer
mb
20260507194528 13 92 0.0 1.6 0.03 0.58 0.36 1 1008.2
20260507193025 13 55 0.0 9.7 0.00 0.56 0.33 1 1008.2
20260507191521 13 347 0.0 0.0 0.00 0.56 0.33 1 1007.9
20260507190018 13 142 0.0 6.4 0.00 0.56 0.33 1 1008.1
20260507184511 14 230 0.0 4.8 0.00 0.56 0.33 1 1008.0
20260507183007 14 19 0.0 1.6 0.00 0.56 0.33 1 1008.1
20260507181502 15 105 0.0 11.3 0.03 0.56 0.33 1 1007.9
20260507180058 15 232 0.0 6.4 0.03 0.56 0.33 1 1007.8
20260507174557 15 246 0.0 8.0 0.03 0.56 0.33 1 1007.7
20260507173055 15 254 0.0 1.6 0.08 0.56 0.33 1 1007.8
20260507171545 15 240 0.0 4.8 0.13 0.56 0.33 1 1008.3
20260507170040 15 300 1.6 6.4 0.13 0.53 0.30 1 1008.1
20260507164522 16 5 0.0 1.6 0.13 0.53 0.30 1 1007.7
20260507163018 16 243 0.0 3.2 0.08 0.48 0.25 1 1007.6
20260507161514 16 128 0.0 1.6 0.05 0.46 0.23 1 1007.6
20260507160014 16 240 0.0 4.8 0.00 0.41 0.18 1 1007.8
20260507154506 16 184 0.0 6.4 0.00 0.41 0.18 1 1007.8
20260507153003 16 241 0.0 1.6 0.00 0.41 0.18 1 1008.1
20260507151557 16 200 0.0 8.0 0.00 0.41 0.18 1 1008.2
20260507150053 16 311 0.0 1.6 0.00 0.41 0.18 1 1008.3
20260507144548 17 267 0.0 0.0 0.00 0.41 0.18 1 1007.8
20260507143046 17 227 0.0 0.0 0.00 0.41 0.18 1 1007.5
20260507141539 17 323 0.0 0.0 0.03 0.41 0.18 1 1007.5
20260507140043 17 99 0.0 0.0 0.03 0.41 0.18 1 1007.4
20260507134541 17 23 0.0 0.0 0.05 0.41 0.18 1 1007.5
20260507133036 17 308 0.0 0.0 0.08 0.41 0.18 1 1007.3
20260507131550 17 11 0.0 0.0 0.08 0.38 0.15 1 1007.3
20260507130029 17 331 0.0 0.0 0.10 0.38 0.15 1 1008.0
20260507124524 17 28 0.0 0.0 0.08 0.36 0.13 1 1008.6
20260507123023 17 67 0.0 0.0 0.05 0.33 0.10 1 1008.4
20260507121522 17 46 0.0 0.0 0.05 0.30 0.08 1 1008.2
20260507120033 17 122 0.0 0.0 0.03 0.28 0.05 1 1008.2
20260507114514 17 98 0.0 0.0 0.03 0.28 0.05 1 1008.3
20260507113010 16 66 0.0 0.0 0.03 0.28 0.05 1 1008.1
20260507111507 16 11 0.0 0.0 0.00 0.25 0.03 1 1007.8
20260507110002 16 11 0.0 0.0 0.00 0.25 0.03 1 1007.9
20260507104557 16 11 0.0 0.0 0.00 0.25 0.03 1 1007.8
20260507103054 16 11 0.0 0.0 0.00 0.25 0.03 1 1007.8
20260507101557 16 315 0.0 0.0 0.00 0.25 0.03 1 1007.7
20260507100045 16 316 0.0 0.0 0.00 0.25 0.03 1 1007.7
20260507094541 17 316 0.0 0.0 0.00 0.25 0.03 1 1007.6
20260507093037 17 316 0.0 0.0 0.00 0.25 0.03 1 1007.6
20260507091531 17 316 0.0 0.0 0.00 0.25 0.03 1 1007.8
20260507090027 17 316 0.0 0.0 0.00 0.25 0.03 1 1008.1
20260507084523 17 316 0.0 0.0 0.00 0.25 0.03 1 1007.9
20260507083019 17 316 0.0 0.0 0.00 0.25 0.03 1 1007.6
20260507081532 17 316 0.0 0.0 0.00 0.25 0.03 1 1007.7
20260507080012 17 316 0.0 0.0 0.00 0.25 0.03 1 1007.7
20260507074521 17 316 0.0 0.0 0.00 0.25 0.03 1 1007.5
20260507073105 17 316 0.0 0.0 0.00 0.25 0.03 1 1007.8
20260507071502 17 36 0.0 0.0 0.00 0.25 0.03 1 1007.5
20260507070058 17 36 0.0 0.0 0.00 0.25 0.03 1 1008.2
20260507064555 17 35 0.0 0.0 0.00 0.25 0.03 1 1008.3
20260507063050 17 35 0.0 0.0 0.00 0.25 0.03 1 1008.5
20260507061546 17 35 0.0 0.0 0.03 0.25 0.03 1 1008.7
20260507060046 17 35 0.0 0.0 0.03 0.25 0.03 1 1009.4
20260507054547 17 35 0.0 0.0 0.03 0.25 0.03 1 1009.7
20260507053035 17 35 0.0 0.0 0.03 0.25 0.03 1 1009.8
20260507051529 17 35 0.0 0.0 0.00 0.23 0.00 1 1009.8
20260507050027 17 95 0.0 0.0 0.00 0.23 0.00 1 1009.9
20260507044520 17 96 0.0 0.0 0.00 0.23 0.00 1 1010.1
20260507043016 18 96 0.0 0.0 0.00 0.23 0.00 1 1009.7
20260507041512 18 98 0.0 0.0 0.05 0.23 0.00 1 1009.6
20260507040008 18 99 0.0 0.0 0.08 0.23 0.00 1 1009.5
20260507034503 18 124 0.0 0.0 0.10 0.23 0.23 1 1009.1
20260507033105 18 227 0.0 0.0 0.10 0.23 0.23 1 1009.0
20260507031606 18 295 0.0 0.0 0.05 0.18 0.18 1 1010.8
20260507030055 18 292 0.0 0.0 0.05 0.15 0.15 1 1010.6
20260507024547 18 317 0.0 0.0 0.05 0.13 0.13 1 1010.2
20260507023043 18 230 0.0 0.0 0.05 0.13 0.13 1 1009.7
20260507021543 18 230 0.0 0.0 0.08 0.13 0.13 1 1009.7
20260507020047 18 230 0.0 0.0 0.05 0.10 0.10 1 1009.5
20260507014547 19 230 0.0 0.0 0.03 0.08 0.08 1 1009.3
20260507013033 19 230 0.0 0.0 0.03 0.08 0.08 1 1008.8
20260507011532 19 230 0.0 0.0 0.05 0.05 0.05 1 1009.0
20260507010029 19 230 0.0 0.0 0.05 0.05 0.05 1 1009.2
20260507004523 20 230 0.0 0.0 0.05 0.05 0.05 1 1009.2
20260507003019 20 230 0.0 0.0 0.05 0.05 0.05 10 1009.2
20260507001521 20 230 0.0 0.0 0.00 0.00 0.00 17 1009.0
20260507000009 20 230 0.0 0.0 0.00 0.00 0.00 22 1009.1
20260506234503 20 24 0.0 0.0 0.00 0.00 0.00 30 1008.4
20260506233124 21 344 0.0 0.0 0.00 0.00 0.00 37 1008.7
20260506231555 21 355 0.0 0.0 0.00 0.00 0.00 40 1008.8
20260506230052 21 20 0.0 0.0 0.00 0.00 0.00 42 1009.2
20260506224546 21 27 0.0 0.0 0.00 0.00 0.00 45 1009.4
20260506223041 21 273 0.0 0.0 0.00 0.00 0.00 47 1009.6
20260506221538 21 313 0.0 0.0 0.00 0.00 0.00 50 1009.4
20260506220036 22 337 0.0 0.0 0.00 0.00 0.00 54 1009.6
20260506214528 22 12 0.0 0.0 0.00 0.00 0.00 56 1009.2
20260506213024 22 336 0.0 0.0 0.00 0.00 0.00 55 1008.6
20260506211521 22 104 0.0 4.8 0.00 0.00 0.00 57 1008.5
20260506210015 22 319 0.0 0.0 0.00 0.00 0.00 56 1008.7
20260506204512 22 325 0.0 0.0 0.00 0.00 0.00 59 1008.9
20260506203009 22 140 0.0 0.0 0.00 0.00 0.00 56 1008.9
20260506201502 22 254 0.0 0.0 0.00 0.00 0.00 57 1009.3
20260506200058 22 259 0.0 0.0 0.00 0.00 0.00 57 1009.1